| time (UTC) | temp F | wind direction | speed knots | gust knots | rain 1hr in | rain 24hr in | rain mn in | humidity % | barometer mb |
| 20260505125037 | 53 | 0.0 | 0.0 | 0.00 | 0.00 | 0.00 | 83 | 1015.1 | |
| 20260505124037 | 52 | 0.0 | 0.0 | 0.00 | 0.00 | 0.00 | 85 | 1015.4 | |
| 20260505123017 | 50 | 0.0 | 0.0 | 0.00 | 0.00 | 0.00 | 87 | 1015.3 | |
| 20260505122017 | 49 | 0.0 | 1.7 | 0.00 | 0.00 | 0.00 | 88 | 1015.5 | |
| 20260505121017 | 48 | 0.0 | 0.0 | 0.00 | 0.00 | 0.00 | 88 | 1015.4 | |
| 20260505120017 | 47 | 0.0 | 0.0 | 0.00 | 0.00 | 0.00 | 88 | 1015.2 | |
| 20260505115017 | 46 | 0.0 | 0.0 | 0.00 | 0.00 | 0.00 | 87 | 1015.3 | |
| 20260505114017 | 45 | 0.0 | 0.0 | 0.00 | 0.00 | 0.00 | 88 | 1015.2 | |
| 20260505113017 | 44 | 0.0 | 0.0 | 0.00 | 0.00 | 0.00 | 87 | 1015.3 | |
| 20260505112037 | 44 | 0.0 | 0.0 | 0.00 | 0.00 | 0.00 | 88 | 1015.3 | |
| 20260505111017 | 43 | 0.0 | 0.0 | 0.00 | 0.00 | 0.00 | 88 | 1015.1 | |
| 20260505102016 | 44 | 0.0 | 0.0 | 0.00 | 0.00 | 0.00 | 88 | 1014.5 | |
| 20260505101037 | 44 | 0.0 | 0.0 | 0.00 | 0.00 | 0.00 | 88 | 1014.4 | |
| 20260505100037 | 45 | 0.0 | 0.0 | 0.00 | 0.00 | 0.00 | 88 | 1014.4 | |
| 20260505095016 | 45 | 0.0 | 0.0 | 0.00 | 0.00 | 0.00 | 88 | 1014.5 | |
| 20260505094017 | 45 | 0.0 | 0.0 | 0.00 | 0.00 | 0.00 | 88 | 1014.4 | |
| 20260505093016 | 45 | 0.0 | 0.0 | 0.00 | 0.00 | 0.00 | 88 | 1014.4 | |
| 20260505092017 | 45 | 0.0 | 0.0 | 0.00 | 0.00 | 0.00 | 88 | 1014.5 | |
| 20260505091017 | 45 | 0.0 | 0.0 | 0.00 | 0.00 | 0.00 | 88 | 1014.4 | |
| 20260505090017 | 45 | 0.0 | 0.0 | 0.00 | 0.00 | 0.00 | 88 | 1014.4 | |
| 20260505085017 | 46 | 0.0 | 0.0 | 0.00 | 0.00 | 0.00 | 88 | 1014.4 | |
| 20260505084017 | 46 | 0.0 | 0.0 | 0.00 | 0.00 | 0.00 | 88 | 1014.5 | |
| 20260505083017 | 46 | 0.0 | 0.0 | 0.00 | 0.00 | 0.00 | 88 | 1014.5 | |
| 20260505082016 | 47 | 0.0 | 0.0 | 0.00 | 0.00 | 0.00 | 88 | 1014.4 | |
| 20260505081017 | 46 | 225 | 0.9 | 2.6 | 0.00 | 0.00 | 0.00 | 88 | 1014.2 |
| 20260505080016 | 47 | 0.0 | 0.0 | 0.00 | 0.00 | 0.00 | 88 | 1014.2 | |
| 20260505075017 | 46 | 0.0 | 0.0 | 0.00 | 0.00 | 0.00 | 88 | 1014.1 | |
| 20260505074016 | 47 | 0.0 | 0.0 | 0.00 | 0.00 | 0.00 | 88 | 1013.8 | |
| 20260505073017 | 47 | 0.0 | 0.0 | 0.00 | 0.00 | 0.00 | 88 | 1013.6 | |
| 20260505072016 | 47 | 0.0 | 0.0 | 0.00 | 0.00 | 0.00 | 88 | 1013.5 | |
| 20260505071016 | 47 | 0.0 | 1.7 | 0.00 | 0.00 | 0.00 | 88 | 1013.4 | |
| 20260505070017 | 47 | 0.0 | 0.0 | 0.00 | 0.00 | 0.00 | 88 | 1013.5 | |
| 20260505065017 | 48 | 0.0 | 0.0 | 0.00 | 0.00 | 0.00 | 87 | 1013.4 | |
| 20260505064036 | 48 | 0.0 | 0.0 | 0.00 | 0.00 | 0.00 | 87 | 1013.3 | |
| 20260505063016 | 48 | 0.0 | 0.0 | 0.00 | 0.00 | 0.00 | 87 | 1013.2 | |
| 20260505062016 | 48 | 0.0 | 0.0 | 0.00 | 0.00 | 0.00 | 87 | 1013.2 | |
| 20260505061036 | 48 | 0.0 | 0.0 | 0.00 | 0.00 | 0.00 | 87 | 1013.0 | |
| 20260505060036 | 49 | 0.0 | 0.0 | 0.00 | 0.00 | 0.00 | 87 | 1012.9 | |
| 20260505055017 | 49 | 0.0 | 0.0 | 0.00 | 0.00 | 0.00 | 86 | 1012.9 | |
| 20260505054016 | 49 | 0.0 | 0.0 | 0.00 | 0.00 | 0.00 | 86 | 1012.8 | |
| 20260505053016 | 49 | 0.0 | 0.0 | 0.00 | 0.00 | 0.00 | 86 | 1012.8 | |
| 20260505052016 | 50 | 0.0 | 0.0 | 0.00 | 0.00 | 0.00 | 86 | 1012.7 | |
| 20260505051036 | 50 | 0.0 | 0.0 | 0.00 | 0.00 | 0.00 | 86 | 1012.8 | |
| 20260505041036 | 52 | 0.0 | 0.0 | 0.00 | 0.00 | 0.00 | 84 | 1012.4 | |
| 20260505040016 | 52 | 0.0 | 0.0 | 0.00 | 0.00 | 0.00 | 83 | 1012.3 | |
| 20260505035016 | 52 | 0.0 | 0.0 | 0.00 | 0.00 | 0.00 | 82 | 1012.5 | |
| 20260505034016 | 53 | 0.0 | 0.0 | 0.00 | 0.00 | 0.00 | 81 | 1012.4 | |
| 20260505033016 | 53 | 0.0 | 0.0 | 0.00 | 0.00 | 0.00 | 81 | 1012.5 | |
| 20260505032016 | 53 | 0.0 | 0.0 | 0.00 | 0.00 | 0.00 | 80 | 1012.5 | |
| 20260505031036 | 54 | 0.0 | 0.0 | 0.00 | 0.00 | 0.00 | 79 | 1012.4 | |
| 20260505030016 | 54 | 0.0 | 0.0 | 0.00 | 0.00 | 0.00 | 79 | 1012.5 | |
| 20260505025016 | 55 | 0.0 | 0.0 | 0.00 | 0.00 | 0.00 | 79 | 1012.6 | |
| 20260505024016 | 55 | 0.0 | 0.0 | 0.00 | 0.00 | 0.00 | 78 | 1012.5 | |
| 20260505023016 | 55 | 0.0 | 0.0 | 0.00 | 0.00 | 0.00 | 78 | 1012.5 | |
| 20260505022016 | 56 | 0.0 | 0.0 | 0.00 | 0.00 | 0.00 | 77 | 1012.5 | |
| 20260505021019 | 56 | 0.0 | 0.0 | 0.00 | 0.00 | 0.00 | 76 | 1012.3 | |
| 20260505020016 | 57 | 0.0 | 0.0 | 0.00 | 0.00 | 0.00 | 74 | 1012.4 | |
| 20260505015016 | 57 | 0.0 | 0.0 | 0.00 | 0.00 | 0.00 | 74 | 1012.5 | |
| 20260505014016 | 58 | 0.0 | 0.0 | 0.00 | 0.00 | 0.00 | 72 | 1012.3 | |
| 20260505013036 | 59 | 0.0 | 0.0 | 0.00 | 0.00 | 0.00 | 70 | 1012.2 | |
| 20260505012117 | 60 | 0.0 | 0.0 | 0.00 | 0.00 | 0.00 | 69 | 1012.2 | |
| 20260505011016 | 61 | 0.0 | 0.0 | 0.00 | 0.00 | 0.00 | 68 | 1011.9 | |
| 20260505010016 | 62 | 0.0 | 0.0 | 0.00 | 0.00 | 0.00 | 65 | 1011.8 | |
| 20260505005016 | 63 | 0.0 | 0.0 | 0.00 | 0.00 | 0.00 | 62 | 1011.6 | |
| 20260505004016 | 65 | 0.0 | 0.0 | 0.00 | 0.00 | 0.00 | 60 | 1011.7 | |
| 20260505003016 | 66 | 0.0 | 0.0 | 0.00 | 0.00 | 0.00 | 57 | 1011.6 | |
| 20260505002016 | 68 | 0.0 | 0.0 | 0.00 | 0.00 | 0.00 | 55 | 1011.6 | |
| 20260505001016 | 69 | 0.0 | 0.0 | 0.00 | 0.00 | 0.00 | 52 | 1011.6 | |
| 20260505000016 | 70 | 0.0 | 0.0 | 0.00 | 0.00 | 0.00 | 49 | 1011.5 | |
| 20260504235016 | 71 | 0.0 | 0.0 | 0.00 | 0.00 | 0.00 | 47 | 1011.4 | |
| 20260504234036 | 72 | 0.0 | 0.0 | 0.00 | 0.00 | 0.00 | 46 | 1011.3 | |
| 20260504233016 | 73 | 0.0 | 0.9 | 0.00 | 0.00 | 0.00 | 45 | 1011.3 | |
| 20260504232037 | 73 | 225 | 0.9 | 3.5 | 0.00 | 0.00 | 0.00 | 44 | 1011.3 |
| 20260504231016 | 74 | 248 | 0.9 | 1.7 | 0.00 | 0.00 | 0.00 | 41 | 1011.4 |
| 20260504230016 | 75 | 203 | 1.7 | 4.3 | 0.00 | 0.00 | 0.00 | 41 | 1011.2 |
| 20260504225016 | 75 | 248 | 0.9 | 1.7 | 0.00 | 0.00 | 0.00 | 41 | 1011.4 |
| 20260504224016 | 75 | 0.0 | 0.0 | 0.00 | 0.00 | 0.00 | 43 | 1011.4 | |
| 20260504223016 | 75 | 203 | 0.9 | 2.6 | 0.00 | 0.00 | 0.00 | 41 | 1011.6 |
| 20260504222016 | 75 | 203 | 1.7 | 5.2 | 0.00 | 0.00 | 0.00 | 40 | 1011.7 |
| 20260504221016 | 75 | 270 | 0.9 | 3.5 | 0.00 | 0.00 | 0.00 | 42 | 1011.7 |
| 20260504220016 | 75 | 270 | 0.9 | 2.6 | 0.00 | 0.00 | 0.00 | 41 | 1011.7 |
| 20260504215016 | 75 | 270 | 1.7 | 4.3 | 0.00 | 0.00 | 0.00 | 41 | 1011.8 |
| 20260504214036 | 75 | 248 | 1.7 | 3.5 | 0.00 | 0.00 | 0.00 | 39 | 1011.8 |
| 20260504213036 | 76 | 203 | 2.6 | 3.5 | 0.00 | 0.00 | 0.00 | 39 | 1011.8 |
| 20260504212036 | 75 | 158 | 2.6 | 7.0 | 0.00 | 0.00 | 0.00 | 40 | 1011.8 |
| 20260504211016 | 76 | 270 | 0.9 | 2.6 | 0.00 | 0.00 | 0.00 | 42 | 1011.8 |
| 20260504210016 | 76 | 180 | 2.6 | 4.3 | 0.00 | 0.00 | 0.00 | 40 | 1011.9 |
| 20260504205015 | 75 | 180 | 1.7 | 4.3 | 0.00 | 0.00 | 0.00 | 41 | 1011.8 |
| 20260504204016 | 76 | 248 | 2.6 | 5.2 | 0.00 | 0.00 | 0.00 | 41 | 1011.9 |
| 20260504203036 | 76 | 270 | 0.9 | 1.7 | 0.00 | 0.00 | 0.00 | 43 | 1011.8 |
| 20260504202016 | 75 | 248 | 0.9 | 2.6 | 0.00 | 0.00 | 0.00 | 44 | 1012.0 |
| 20260504201016 | 75 | 0.0 | 1.7 | 0.00 | 0.00 | 0.00 | 43 | 1012.1 | |
| 20260504200016 | 75 | 270 | 1.7 | 3.5 | 0.00 | 0.00 | 0.00 | 45 | 1012.0 |
| 20260504195015 | 74 | 293 | 1.7 | 3.5 | 0.00 | 0.00 | 0.00 | 46 | 1012.3 |
| 20260504194036 | 73 | 0.0 | 0.9 | 0.00 | 0.00 | 0.00 | 47 | 1012.3 | |
| 20260504193016 | 73 | 0.0 | 2.6 | 0.00 | 0.00 | 0.00 | 46 | 1012.6 | |
| 20260504192015 | 73 | 270 | 0.9 | 2.6 | 0.00 | 0.00 | 0.00 | 46 | 1012.8 |
| 20260504191016 | 73 | 270 | 0.9 | 2.6 | 0.00 | 0.00 | 0.00 | 47 | 1012.9 |
| 20260504190015 | 73 | 270 | 0.9 | 2.6 | 0.00 | 0.00 | 0.00 | 48 | 1012.9 |
| 20260504185015 | 72 | 248 | 0.9 | 2.6 | 0.00 | 0.00 | 0.00 | 49 | 1012.9 |
| 20260504184015 | 71 | 248 | 0.9 | 2.6 | 0.00 | 0.00 | 0.00 | 48 | 1013.2 |
| 20260504183016 | 71 | 0.0 | 0.9 | 0.00 | 0.00 | 0.00 | 48 | 1013.2 | |
| 20260504182015 | 70 | 135 | 1.7 | 3.5 | 0.00 | 0.00 | 0.00 | 51 | 1013.2 |
| 20260504181017 | 70 | 203 | 1.7 | 4.3 | 0.00 | 0.00 | 0.00 | 51 | 1013.6 |
| 20260504180015 | 69 | 0.0 | 0.0 | 0.00 | 0.00 | 0.00 | 50 | 1013.6 | |
| 20260504175016 | 68 | 203 | 0.9 | 2.6 | 0.00 | 0.00 | 0.00 | 51 | 1013.8 |
| 20260504174016 | 68 | 203 | 0.9 | 4.3 | 0.00 | 0.00 | 0.00 | 54 | 1013.9 |
| 20260504173016 | 67 | 203 | 1.7 | 4.3 | 0.00 | 0.00 | 0.00 | 54 | 1014.4 |
| 20260504172015 | 67 | 270 | 1.7 | 3.5 | 0.00 | 0.00 | 0.00 | 53 | 1014.6 |
| 20260504171015 | 68 | 203 | 1.7 | 2.6 | 0.00 | 0.00 | 0.00 | 51 | 1014.4 |
| 20260504151017 | 61 | 0.0 | 0.0 | 0.00 | 0.00 | 0.00 | 56 | 1015.6 | |
| 20260504141017 | 57 | 0.0 | 0.0 | 0.00 | 0.00 | 0.00 | 64 | 1016.3 |